Time,TemperatureF,DewpointF,PressureIn,WindDirection,WindDirectionDegrees,WindSpeedMPH,WindSpeedGustMPH,Humidity,HourlyPrecipIn,Conditions,Clouds,dailyrainin,SoftwareType,DateUTC
2013-02-02 00:00:00,20.8,-3.2,30.04,West,270,1.0,8.0,34,0.00,,,-99.99,WeatherLink 5.5,2013-02-02 05:00:00,
2013-02-02 00:05:00,20.8,-2.6,30.04,SW,225,0.0,2.0,35,0.00,,,-99.99,WeatherLink 5.5,2013-02-02 05:05:00,
2013-02-02 00:10:00,20.8,-2.6,30.04,WSW,247,0.0,2.0,35,0.00,,,-99.99,WeatherLink 5.5,2013-02-02 05:10:00,
2013-02-02 00:15:00,20.8,-2.6,30.04,WSW,247,0.0,2.0,35,0.00,,,-99.99,WeatherLink 5.5,2013-02-02 05:15:00,
2013-02-02 00:20:00,20.8,-2.6,30.04,WSW,247,0.0,4.0,35,0.00,,,-99.99,WeatherLink 5.5,2013-02-02 05:20:00,
2013-02-02 00:25:00,20.8,-2.6,30.04,WSW,247,1.0,7.0,35,0.00,,,-99.99,WeatherLink 5.5,2013-02-02 05:25:00,
2013-02-02 00:30:00,20.8,-2.6,30.04,WSW,247,1.0,7.0,35,0.00,,,-99.99,WeatherLink 5.5,2013-02-02 05:30:00,
2013-02-02 00:35:00,20.8,-1.4,30.05,North,-999,0.0,0.0,37,0.00,,,-99.99,WeatherLink 5.5,2013-02-02 05:35:00,
2013-02-02 00:40:00,20.8,-2.0,30.05,WSW,247,0.0,1.0,36,0.00,,,-99.99,WeatherLink 5.5,2013-02-02 05:40:00,
2013-02-02 00:45:00,20.8,-2.0,30.05,WSW,247,0.0,1.0,36,0.00,,,-99.99,WeatherLink 5.5,2013-02-02 05:45:00,
2013-02-02 00:50:00,20.5,-2.3,30.05,North,-999,0.0,0.0,36,0.00,,,-99.99,WeatherLink 5.5,2013-02-02 05:50:00,
2013-02-02 00:55:00,20.5,-2.3,30.05,WSW,247,0.0,1.0,36,0.00,,,-99.99,WeatherLink 5.5,2013-02-02 05:55:00,
2013-02-02 01:00:00,20.5,-2.3,30.05,WSW,247,0.0,1.0,36,0.00,,,-99.99,WeatherLink 5.5,2013-02-02 06:00:00,
2013-02-02 01:05:00,20.3,-1.9,30.06,WSW,247,0.0,1.0,37,0.00,,,-99.99,WeatherLink 5.5,2013-02-02 06:05:00,
2013-02-02 01:10:00,20.2,-2.0,30.06,WSW,247,0.0,2.0,37,0.00,,,-99.99,WeatherLink 5.5,2013-02-02 06:10:00,
2013-02-02 01:15:00,20.2,-2.0,30.06,WSW,247,0.0,2.0,37,0.00,,,-99.99,WeatherLink 5.5,2013-02-02 06:15:00,
2013-02-02 01:20:00,20.0,-1.6,30.06,North,-999,0.0,0.0,38,0.00,,,-99.99,WeatherLink 5.5,2013-02-02 06:20:00,
2013-02-02 01:25:00,20.0,-1.6,30.06,North,-999,0.0,0.0,38,0.00,,,-99.99,WeatherLink 5.5,2013-02-02 06:25:00,
2013-02-02 01:30:00,20.0,-1.6,30.06,North,-999,0.0,0.0,38,0.00,,,-99.99,WeatherLink 5.5,2013-02-02 06:30:00,
2013-02-02 01:35:00,20.0,-1.6,30.08,West,270,2.0,10.0,38,0.00,,,-99.99,WeatherLink 5.5,2013-02-02 06:35:00,
2013-02-02 01:40:00,20.0,-2.1,30.08,WSW,247,2.0,7.0,37,0.00,,,-99.99,WeatherLink 5.5,2013-02-02 06:40:00,
2013-02-02 01:45:00,20.0,-2.1,30.08,WSW,247,2.0,7.0,37,0.00,,,-99.99,WeatherLink 5.5,2013-02-02 06:45:00,
2013-02-02 01:50:00,20.0,-1.6,30.08,WSW,247,1.0,7.0,38,0.00,,,-99.99,WeatherLink 5.5,2013-02-02 06:50:00,
2013-02-02 01:55:00,20.0,-1.6,30.08,WSW,247,1.0,7.0,38,0.00,,,-99.99,WeatherLink 5.5,2013-02-02 06:55:00,
2013-02-02 02:00:00,20.0,-1.6,30.08,WSW,247,1.0,7.0,38,0.00,,,-99.99,WeatherLink 5.5,2013-02-02 07:00:00,
2013-02-02 02:05:00,19.7,-1.3,30.09,WSW,247,0.0,2.0,39,0.00,,,-99.99,WeatherLink 5.5,2013-02-02 07:05:00,
2013-02-02 02:10:00,19.7,-0.8,30.09,WSW,247,0.0,2.0,40,0.00,,,-99.99,WeatherLink 5.5,2013-02-02 07:10:00,
2013-02-02 02:15:00,19.7,-0.8,30.09,WSW,247,0.0,2.0,40,0.00,,,-99.99,WeatherLink 5.5,2013-02-02 07:15:00,
2013-02-02 02:20:00,19.6,-0.9,30.09,West,270,1.0,13.0,40,0.00,,,-99.99,WeatherLink 5.5,2013-02-02 07:20:00,
2013-02-02 02:25:00,19.6,-0.3,30.09,West,270,1.0,7.0,41,0.00,,,-99.99,WeatherLink 5.5,2013-02-02 07:25:00,
2013-02-02 02:30:00,19.6,-0.3,30.09,West,270,1.0,7.0,41,0.00,,,-99.99,WeatherLink 5.5,2013-02-02 07:30:00,
2013-02-02 02:35:00,19.2,0.3,30.09,WSW,247,2.0,7.0,43,0.00,,,-99.99,WeatherLink 5.5,2013-02-02 07:35:00,
2013-02-02 02:40:00,19.2,0.3,30.09,SW,225,1.0,4.0,43,0.00,,,-99.99,WeatherLink 5.5,2013-02-02 07:40:00,
2013-02-02 02:45:00,19.2,0.3,30.09,SW,225,1.0,4.0,43,0.00,,,-99.99,WeatherLink 5.5,2013-02-02 07:45:00,
2013-02-02 02:50:00,19.1,-0.3,30.09,SW,225,2.0,9.0,42,0.00,,,-99.99,WeatherLink 5.5,2013-02-02 07:50:00,
2013-02-02 02:55:00,18.9,-0.5,30.09,West,270,1.0,6.0,42,0.00,,,-99.99,WeatherLink 5.5,2013-02-02 07:55:00,
2013-02-02 03:00:00,18.9,-0.5,30.09,West,270,1.0,6.0,42,0.00,,,-99.99,WeatherLink 5.5,2013-02-02 08:00:00,
2013-02-02 03:05:00,18.8,-1.1,30.10,WSW,247,2.0,9.0,41,0.00,,,-99.99,WeatherLink 5.5,2013-02-02 08:05:00,
2013-02-02 03:10:00,18.8,-1.6,30.10,WSW,247,2.0,9.0,40,0.00,,,-99.99,WeatherLink 5.5,2013-02-02 08:10:00,
2013-02-02 03:15:00,18.8,-1.6,30.10,WSW,247,2.0,9.0,40,0.00,,,-99.99,WeatherLink 5.5,2013-02-02 08:15:00,
2013-02-02 03:20:00,18.6,-1.8,30.11,SW,225,1.0,6.0,40,0.00,,,-99.99,WeatherLink 5.5,2013-02-02 08:20:00,
2013-02-02 03:25:00,18.5,-2.4,30.11,SW,225,0.0,1.0,39,0.00,,,-99.99,WeatherLink 5.5,2013-02-02 08:25:00,
2013-02-02 03:30:00,18.5,-2.4,30.11,SW,225,0.0,1.0,39,0.00,,,-99.99,WeatherLink 5.5,2013-02-02 08:30:00,
2013-02-02 03:35:00,18.3,-2.6,30.11,WSW,247,0.0,6.0,39,0.00,,,-99.99,WeatherLink 5.5,2013-02-02 08:35:00,
2013-02-02 03:40:00,18.3,-2.6,30.11,WSW,247,0.0,1.0,39,0.00,,,-99.99,WeatherLink 5.5,2013-02-02 08:40:00,
2013-02-02 03:45:00,18.3,-2.6,30.11,WSW,247,0.0,1.0,39,0.00,,,-99.99,WeatherLink 5.5,2013-02-02 08:45:00,
2013-02-02 03:50:00,18.1,-3.9,30.11,WSW,247,1.0,9.0,37,0.00,,,-99.99,WeatherLink 5.5,2013-02-02 08:50:00,
2013-02-02 03:55:00,18.1,-3.3,30.11,WSW,247,1.0,7.0,38,0.00,,,-99.99,WeatherLink 5.5,2013-02-02 08:55:00,
2013-02-02 04:00:00,18.1,-3.3,30.11,WSW,247,1.0,7.0,38,0.00,,,-99.99,WeatherLink 5.5,2013-02-02 09:00:00,
2013-02-02 04:05:00,17.8,-3.6,30.12,WSW,247,1.0,6.0,38,0.00,,,-99.99,WeatherLink 5.5,2013-02-02 09:05:00,
2013-02-02 04:10:00,17.8,-3.6,30.12,WSW,247,1.0,8.0,38,0.00,,,-99.99,WeatherLink 5.5,2013-02-02 09:10:00,
2013-02-02 04:15:00,17.8,-3.6,30.12,WSW,247,1.0,8.0,38,0.00,,,-99.99,WeatherLink 5.5,2013-02-02 09:15:00,
2013-02-02 04:20:00,17.7,-3.1,30.12,SW,225,0.0,1.0,39,0.00,,,-99.99,WeatherLink 5.5,2013-02-02 09:20:00,
2013-02-02 04:25:00,17.5,-3.3,30.12,WSW,247,1.0,7.0,39,0.00,,,-99.99,WeatherLink 5.5,2013-02-02 09:25:00,
2013-02-02 04:30:00,17.5,-3.3,30.12,WSW,247,1.0,7.0,39,0.00,,,-99.99,WeatherLink 5.5,2013-02-02 09:30:00,
2013-02-02 04:35:00,17.5,-3.3,30.13,West,270,0.0,6.0,39,0.00,,,-99.99,WeatherLink 5.5,2013-02-02 09:35:00,
2013-02-02 04:40:00,17.4,-3.4,30.13,North,-999,0.0,0.0,39,0.00,,,-99.99,WeatherLink 5.5,2013-02-02 09:40:00,
2013-02-02 04:45:00,17.4,-3.4,30.13,North,-999,0.0,0.0,39,0.00,,,-99.99,WeatherLink 5.5,2013-02-02 09:45:00,
2013-02-02 04:50:00,17.2,-3.6,30.13,West,270,1.0,7.0,39,0.00,,,-99.99,WeatherLink 5.5,2013-02-02 09:50:00,
2013-02-02 04:55:00,17.0,-3.7,30.13,WSW,247,0.0,7.0,39,0.00,,,-99.99,WeatherLink 5.5,2013-02-02 09:55:00,
2013-02-02 05:00:00,17.0,-3.7,30.13,WSW,247,0.0,7.0,39,0.00,,,-99.99,WeatherLink 5.5,2013-02-02 10:00:00,
2013-02-02 05:05:00,17.0,-3.7,30.14,West,270,1.0,7.0,39,0.00,,,-99.99,WeatherLink 5.5,2013-02-02 10:05:00,
2013-02-02 05:10:00,17.0,-3.7,30.14,WSW,247,1.0,7.0,39,0.00,,,-99.99,WeatherLink 5.5,2013-02-02 10:10:00,
2013-02-02 05:15:00,17.0,-3.7,30.14,WSW,247,1.0,7.0,39,0.00,,,-99.99,WeatherLink 5.5,2013-02-02 10:15:00,
2013-02-02 05:20:00,17.0,-3.7,30.14,West,270,0.0,1.0,39,0.00,,,-99.99,WeatherLink 5.5,2013-02-02 10:20:00,
2013-02-02 05:25:00,16.9,-3.3,30.14,North,-999,0.0,0.0,40,0.00,,,-99.99,WeatherLink 5.5,2013-02-02 10:25:00,
2013-02-02 05:30:00,16.9,-3.3,30.14,North,-999,0.0,0.0,40,0.00,,,-99.99,WeatherLink 5.5,2013-02-02 10:30:00,
2013-02-02 05:35:00,16.6,-3.1,30.15,West,270,0.0,1.0,41,0.00,,,-99.99,WeatherLink 5.5,2013-02-02 10:35:00,
2013-02-02 05:40:00,16.4,-2.7,30.15,North,-999,0.0,0.0,42,0.00,,,-99.99,WeatherLink 5.5,2013-02-02 10:40:00,
2013-02-02 05:45:00,16.4,-2.7,30.15,North,-999,0.0,0.0,42,0.00,,,-99.99,WeatherLink 5.5,2013-02-02 10:45:00,
2013-02-02 05:50:00,16.1,-2.5,30.16,North,-999,0.0,0.0,43,0.00,,,-99.99,WeatherLink 5.5,2013-02-02 10:50:00,
2013-02-02 05:55:00,15.8,-2.3,30.16,North,-999,0.0,0.0,44,0.00,,,-99.99,WeatherLink 5.5,2013-02-02 10:55:00,
2013-02-02 06:00:00,15.8,-2.3,30.16,North,-999,0.0,0.0,44,0.00,,,-99.99,WeatherLink 5.5,2013-02-02 11:00:00,
2013-02-02 06:05:00,15.4,-2.7,30.15,North,-999,0.0,0.0,44,0.00,,,-99.99,WeatherLink 5.5,2013-02-02 11:05:00,
2013-02-02 06:10:00,15.3,-1.8,30.15,North,-999,0.0,0.0,46,0.00,,,-99.99,WeatherLink 5.5,2013-02-02 11:10:00,
2013-02-02 06:15:00,15.3,-1.8,30.15,North,-999,0.0,0.0,46,0.00,,,-99.99,WeatherLink 5.5,2013-02-02 11:15:00,
2013-02-02 06:20:00,14.8,-1.8,30.16,North,-999,0.0,0.0,47,0.00,,,-99.99,WeatherLink 5.5,2013-02-02 11:20:00,
2013-02-02 06:25:00,14.6,-1.6,30.16,North,-999,0.0,0.0,48,0.00,,,-99.99,WeatherLink 5.5,2013-02-02 11:25:00,
2013-02-02 06:30:00,14.6,-1.6,30.16,North,-999,0.0,0.0,48,0.00,,,-99.99,WeatherLink 5.5,2013-02-02 11:30:00,
2013-02-02 06:35:00,14.5,-1.2,30.16,North,-999,0.0,0.0,49,0.00,,,-99.99,WeatherLink 5.5,2013-02-02 11:35:00,
2013-02-02 06:40:00,14.3,-1.0,30.16,North,-999,0.0,0.0,50,0.00,,,-99.99,WeatherLink 5.5,2013-02-02 11:40:00,
2013-02-02 06:45:00,14.3,-1.0,30.16,North,-999,0.0,0.0,50,0.00,,,-99.99,WeatherLink 5.5,2013-02-02 11:45:00,
2013-02-02 06:50:00,14.1,-0.3,30.17,North,-999,0.0,0.0,52,0.00,,,-99.99,WeatherLink 5.5,2013-02-02 11:50:00,
2013-02-02 06:55:00,14.0,-0.4,30.17,North,-999,0.0,0.0,52,0.00,,,-99.99,WeatherLink 5.5,2013-02-02 11:55:00,
2013-02-02 07:00:00,14.0,-0.4,30.17,North,-999,0.0,0.0,52,0.00,,,-99.99,WeatherLink 5.5,2013-02-02 12:00:00,
2013-02-02 07:05:00,13.8,-0.6,30.18,North,-999,0.0,0.0,52,0.00,,,-99.99,WeatherLink 5.5,2013-02-02 12:05:00,
2013-02-02 07:10:00,13.7,-0.7,30.18,North,-999,0.0,0.0,52,0.00,,,-99.99,WeatherLink 5.5,2013-02-02 12:10:00,
2013-02-02 07:15:00,13.7,-0.7,30.18,North,-999,0.0,0.0,52,0.00,,,-99.99,WeatherLink 5.5,2013-02-02 12:15:00,
2013-02-02 07:20:00,13.7,0.1,30.17,North,-999,0.0,0.0,54,0.00,,,-99.99,WeatherLink 5.5,2013-02-02 12:20:00,
2013-02-02 07:25:00,13.7,0.5,30.17,North,-999,0.0,0.0,55,0.00,,,-99.99,WeatherLink 5.5,2013-02-02 12:25:00,
2013-02-02 07:30:00,13.7,0.5,30.17,North,-999,0.0,0.0,55,0.00,,,-99.99,WeatherLink 5.5,2013-02-02 12:30:00,
2013-02-02 07:35:00,13.5,0.3,30.18,North,-999,0.0,0.0,55,0.00,,,-99.99,WeatherLink 5.5,2013-02-02 12:35:00,
2013-02-02 07:40:00,13.7,0.5,30.18,North,-999,0.0,0.0,55,0.00,,,-99.99,WeatherLink 5.5,2013-02-02 12:40:00,
2013-02-02 07:45:00,13.7,0.5,30.18,North,-999,0.0,0.0,55,0.00,,,-99.99,WeatherLink 5.5,2013-02-02 12:45:00,
2013-02-02 07:50:00,14.1,0.1,30.19,North,-999,0.0,0.0,53,0.00,,,-99.99,WeatherLink 5.5,2013-02-02 12:50:00,
2013-02-02 07:55:00,14.5,0.0,30.19,WSW,247,0.0,1.0,52,0.00,,,-99.99,WeatherLink 5.5,2013-02-02 12:55:00,
2013-02-02 08:00:00,14.5,0.0,30.19,WSW,247,0.0,1.0,52,0.00,,,-99.99,WeatherLink 5.5,2013-02-02 13:00:00,
2013-02-02 08:05:00,15.6,-0.2,30.20,North,-999,0.0,0.0,49,0.00,,,-99.99,WeatherLink 5.5,2013-02-02 13:05:00,
2013-02-02 08:10:00,15.9,-1.3,30.20,WSW,247,0.0,2.0,46,0.00,,,-99.99,WeatherLink 5.5,2013-02-02 13:10:00,
2013-02-02 08:15:00,15.9,-1.3,30.20,WSW,247,0.0,2.0,46,0.00,,,-99.99,WeatherLink 5.5,2013-02-02 13:15:00,
2013-02-02 08:20:00,16.9,-0.8,30.20,North,-999,0.0,0.0,45,0.00,,,-99.99,WeatherLink 5.5,2013-02-02 13:20:00,
2013-02-02 08:25:00,17.7,-1.5,30.20,SSE,157,0.0,1.0,42,0.00,,,-99.99,WeatherLink 5.5,2013-02-02 13:25:00,
2013-02-02 08:30:00,17.7,-1.5,30.20,SSE,157,0.0,1.0,42,0.00,,,-99.99,WeatherLink 5.5,2013-02-02 13:30:00,
2013-02-02 08:35:00,18.3,-2.6,30.20,SSE,157,0.0,4.0,39,0.00,,,-99.99,WeatherLink 5.5,2013-02-02 13:35:00,
2013-02-02 08:40:00,18.5,-2.9,30.20,SE,135,0.0,2.0,38,0.00,,,-99.99,WeatherLink 5.5,2013-02-02 13:40:00,
2013-02-02 08:45:00,18.5,-2.9,30.20,SE,135,0.0,2.0,38,0.00,,,-99.99,WeatherLink 5.5,2013-02-02 13:45:00,
2013-02-02 08:50:00,18.5,-4.1,30.20,WSW,247,2.0,7.0,36,0.00,,,-99.99,WeatherLink 5.5,2013-02-02 13:50:00,
2013-02-02 08:55:00,18.3,-4.8,30.20,WSW,247,3.0,11.0,35,0.00,,,-99.99,WeatherLink 5.5,2013-02-02 13:55:00,
2013-02-02 09:00:00,18.3,-4.8,30.20,WSW,247,3.0,11.0,35,0.00,,,-99.99,WeatherLink 5.5,2013-02-02 14:00:00,
2013-02-02 09:05:00,19.1,-4.1,30.20,SSE,157,1.0,7.0,35,0.00,,,-99.99,WeatherLink 5.5,2013-02-02 14:05:00,
2013-02-02 09:10:00,19.2,-4.0,30.20,South,180,1.0,6.0,35,0.00,,,-99.99,WeatherLink 5.5,2013-02-02 14:10:00,
2013-02-02 09:15:00,19.2,-4.0,30.20,South,180,1.0,6.0,35,0.00,,,-99.99,WeatherLink 5.5,2013-02-02 14:15:00,
2013-02-02 09:20:00,19.1,-4.7,30.20,WSW,247,0.0,4.0,34,0.00,,,-99.99,WeatherLink 5.5,2013-02-02 14:20:00,
2013-02-02 09:25:00,19.4,-3.8,30.20,West,270,0.0,2.0,35,0.00,,,-99.99,WeatherLink 5.5,2013-02-02 14:25:00,
2013-02-02 09:30:00,19.4,-3.8,30.20,West,270,0.0,2.0,35,0.00,,,-99.99,WeatherLink 5.5,2013-02-02 14:30:00,
2013-02-02 09:35:00,19.6,-3.7,30.20,WSW,247,0.0,2.0,35,0.00,,,-99.99,WeatherLink 5.5,2013-02-02 14:35:00,
2013-02-02 09:40:00,20.2,-3.7,30.20,WSW,247,0.0,2.0,34,0.00,,,-99.99,WeatherLink 5.5,2013-02-02 14:40:00,
2013-02-02 09:45:00,20.2,-3.7,30.20,WSW,247,0.0,2.0,34,0.00,,,-99.99,WeatherLink 5.5,2013-02-02 14:45:00,
2013-02-02 09:50:00,20.7,-4.6,30.20,West,270,1.0,7.0,32,0.00,,,-99.99,WeatherLink 5.5,2013-02-02 14:50:00,
2013-02-02 09:55:00,20.8,-4.5,30.20,WSW,247,1.0,7.0,32,0.00,,,-99.99,WeatherLink 5.5,2013-02-02 14:55:00,
2013-02-02 10:00:00,20.8,-4.5,30.20,WSW,247,1.0,7.0,32,0.00,,,-99.99,WeatherLink 5.5,2013-02-02 15:00:00,
2013-02-02 10:05:00,22.4,-3.7,30.19,East,90,0.0,4.0,31,0.00,,,-99.99,WeatherLink 5.5,2013-02-02 15:05:00,
2013-02-02 10:10:00,22.6,-4.2,30.19,SSE,157,1.0,6.0,30,0.00,,,-99.99,WeatherLink 5.5,2013-02-02 15:10:00,
2013-02-02 10:15:00,22.6,-4.2,30.19,SSE,157,1.0,6.0,30,0.00,,,-99.99,WeatherLink 5.5,2013-02-02 15:15:00,
2013-02-02 10:20:00,23.2,-4.4,30.18,East,90,0.0,2.0,29,0.00,,,-99.99,WeatherLink 5.5,2013-02-02 15:20:00,
2013-02-02 10:25:00,23.8,-3.9,30.18,South,180,1.0,11.0,29,0.00,,,-99.99,WeatherLink 5.5,2013-02-02 15:25:00,
2013-02-02 10:30:00,23.8,-3.9,30.18,South,180,1.0,11.0,29,0.00,,,-99.99,WeatherLink 5.5,2013-02-02 15:30:00,
2013-02-02 10:35:00,23.6,-3.4,30.18,West,270,0.0,2.0,30,0.00,,,-99.99,WeatherLink 5.5,2013-02-02 15:35:00,
2013-02-02 10:40:00,23.6,-4.8,30.18,ENE,67,2.0,8.0,28,0.00,,,-99.99,WeatherLink 5.5,2013-02-02 15:40:00,
2013-02-02 10:45:00,23.6,-4.8,30.18,ENE,67,2.0,8.0,28,0.00,,,-99.99,WeatherLink 5.5,2013-02-02 15:45:00,
2013-02-02 10:50:00,25.0,-3.6,30.17,East,90,0.0,4.0,28,0.00,,,-99.99,WeatherLink 5.5,2013-02-02 15:50:00,
2013-02-02 10:55:00,24.8,-5.3,30.17,WSW,247,2.0,13.0,26,0.00,,,-99.99,WeatherLink 5.5,2013-02-02 15:55:00,
2013-02-02 11:00:00,24.8,-5.3,30.17,WSW,247,2.0,13.0,26,0.00,,,-99.99,WeatherLink 5.5,2013-02-02 16:00:00,
2013-02-02 11:05:00,24.5,-4.0,30.17,West,270,1.0,7.0,28,0.00,,,-99.99,WeatherLink 5.5,2013-02-02 16:05:00,
2013-02-02 11:10:00,25.3,-4.1,30.17,West,270,1.0,7.0,27,0.00,,,-99.99,WeatherLink 5.5,2013-02-02 16:10:00,
2013-02-02 11:15:00,25.3,-4.1,30.17,West,270,1.0,7.0,27,0.00,,,-99.99,WeatherLink 5.5,2013-02-02 16:15:00,
2013-02-02 11:20:00,25.0,-4.3,30.16,South,180,2.0,10.0,27,0.00,,,-99.99,WeatherLink 5.5,2013-02-02 16:20:00,
2013-02-02 11:25:00,25.0,-4.3,30.16,SSE,157,1.0,7.0,27,0.00,,,-99.99,WeatherLink 5.5,2013-02-02 16:25:00,
2013-02-02 11:30:00,25.0,-4.3,30.16,SSE,157,1.0,7.0,27,0.00,,,-99.99,WeatherLink 5.5,2013-02-02 16:30:00,
2013-02-02 11:35:00,24.7,-4.6,30.15,SW,225,2.0,10.0,27,0.00,,,-99.99,WeatherLink 5.5,2013-02-02 16:35:00,
2013-02-02 11:40:00,24.5,-3.3,30.15,WSW,247,3.0,9.0,29,0.00,,,-99.99,WeatherLink 5.5,2013-02-02 16:40:00,
2013-02-02 11:45:00,24.5,-3.3,30.15,WSW,247,3.0,9.0,29,0.00,,,-99.99,WeatherLink 5.5,2013-02-02 16:45:00,
2013-02-02 11:50:00,25.7,-3.7,30.14,SE,135,1.0,6.0,27,0.00,,,-99.99,WeatherLink 5.5,2013-02-02 16:50:00,
2013-02-02 11:55:00,25.8,-3.6,30.14,ESE,112,1.0,6.0,27,0.00,,,-99.99,WeatherLink 5.5,2013-02-02 16:55:00,
2013-02-02 12:00:00,25.8,-3.6,30.14,ESE,112,1.0,6.0,27,0.00,,,-99.99,WeatherLink 5.5,2013-02-02 17:00:00,
2013-02-02 12:05:00,26.3,-3.2,30.13,SSE,157,1.0,6.0,27,0.00,,,-99.99,WeatherLink 5.5,2013-02-02 17:05:00,
2013-02-02 12:10:00,26.6,-3.7,30.13,WSW,247,1.0,7.0,26,0.00,,,-99.99,WeatherLink 5.5,2013-02-02 17:10:00,
2013-02-02 12:15:00,26.6,-3.7,30.13,WSW,247,1.0,7.0,26,0.00,,,-99.99,WeatherLink 5.5,2013-02-02 17:15:00,
2013-02-02 12:20:00,26.3,-4.0,30.12,SSE,157,6.0,13.0,26,0.00,,,-99.99,WeatherLink 5.5,2013-02-02 17:20:00,
2013-02-02 12:25:00,26.6,-3.7,30.12,SE,135,4.0,11.0,26,0.00,,,-99.99,WeatherLink 5.5,2013-02-02 17:25:00,
2013-02-02 12:30:00,26.6,-3.7,30.12,SE,135,4.0,11.0,26,0.00,,,-99.99,WeatherLink 5.5,2013-02-02 17:30:00,
2013-02-02 12:35:00,27.0,-2.6,30.11,SSE,157,4.0,10.0,27,0.00,,,-99.99,WeatherLink 5.5,2013-02-02 17:35:00,
2013-02-02 12:40:00,27.6,-3.7,30.11,West,270,3.0,9.0,25,0.00,,,-99.99,WeatherLink 5.5,2013-02-02 17:40:00,
2013-02-02 12:45:00,27.6,-3.7,30.11,West,270,3.0,9.0,25,0.00,,,-99.99,WeatherLink 5.5,2013-02-02 17:45:00,
2013-02-02 12:50:00,27.5,-3.8,30.10,South,180,3.0,10.0,25,0.00,,,-99.99,WeatherLink 5.5,2013-02-02 17:50:00,
2013-02-02 12:55:00,27.6,-2.9,30.10,SSE,157,4.0,14.0,26,0.00,,,-99.99,WeatherLink 5.5,2013-02-02 17:55:00,
2013-02-02 13:00:00,27.6,-2.9,30.10,SSE,157,4.0,14.0,26,0.00,,,-99.99,WeatherLink 5.5,2013-02-02 18:00:00,
2013-02-02 13:05:00,28.2,-3.2,30.09,East,90,2.0,9.0,25,0.00,,,-99.99,WeatherLink 5.5,2013-02-02 18:05:00,
2013-02-02 13:10:00,28.5,-3.8,30.09,SE,135,3.0,10.0,24,0.00,,,-99.99,WeatherLink 5.5,2013-02-02 18:10:00,
2013-02-02 13:15:00,28.5,-3.8,30.09,SE,135,3.0,10.0,24,0.00,,,-99.99,WeatherLink 5.5,2013-02-02 18:15:00,
2013-02-02 13:20:00,28.1,-1.7,30.09,SSE,157,1.0,4.0,27,0.00,,,-99.99,WeatherLink 5.5,2013-02-02 18:20:00,
2013-02-02 13:25:00,28.4,-3.9,30.09,SW,225,2.0,8.0,24,0.00,,,-99.99,WeatherLink 5.5,2013-02-02 18:25:00,
2013-02-02 13:30:00,28.4,-3.9,30.09,SW,225,2.0,8.0,24,0.00,,,-99.99,WeatherLink 5.5,2013-02-02 18:30:00,
2013-02-02 13:35:00,27.9,-3.4,30.08,SSE,157,4.0,9.0,25,0.00,,,-99.99,WeatherLink 5.5,2013-02-02 18:35:00,
2013-02-02 13:40:00,27.6,-3.7,30.08,SSE,157,3.0,15.0,25,0.00,,,-99.99,WeatherLink 5.5,2013-02-02 18:40:00,
2013-02-02 13:45:00,27.6,-3.7,30.08,SSE,157,3.0,15.0,25,0.00,,,-99.99,WeatherLink 5.5,2013-02-02 18:45:00,
2013-02-02 13:50:00,27.9,-3.4,30.07,WSW,247,2.0,10.0,25,0.00,,,-99.99,WeatherLink 5.5,2013-02-02 18:50:00,
2013-02-02 13:55:00,27.5,-3.8,30.07,SSE,157,5.0,15.0,25,0.00,,,-99.99,WeatherLink 5.5,2013-02-02 18:55:00,
2013-02-02 14:00:00,27.5,-3.8,30.07,SSE,157,5.0,15.0,25,0.00,,,-99.99,WeatherLink 5.5,2013-02-02 19:00:00,
2013-02-02 14:05:00,27.8,-4.4,30.07,South,180,1.0,9.0,24,0.00,,,-99.99,WeatherLink 5.5,2013-02-02 19:05:00,
2013-02-02 14:10:00,27.6,-4.6,30.07,SE,135,3.0,9.0,24,0.00,,,-99.99,WeatherLink 5.5,2013-02-02 19:10:00,
2013-02-02 14:15:00,27.6,-4.6,30.07,SE,135,3.0,9.0,24,0.00,,,-99.99,WeatherLink 5.5,2013-02-02 19:15:00,
2013-02-02 14:20:00,27.2,-2.4,30.06,ESE,112,4.0,9.0,27,0.00,,,-99.99,WeatherLink 5.5,2013-02-02 19:20:00,
2013-02-02 14:25:00,27.0,-2.6,30.06,East,90,6.0,11.0,27,0.00,,,-99.99,WeatherLink 5.5,2013-02-02 19:25:00,
2013-02-02 14:30:00,27.0,-2.6,30.06,East,90,6.0,11.0,27,0.00,,,-99.99,WeatherLink 5.5,2013-02-02 19:30:00,
2013-02-02 14:35:00,27.0,-2.6,30.06,ESE,112,0.0,4.0,27,0.00,,,-99.99,WeatherLink 5.5,2013-02-02 19:35:00,
2013-02-02 14:40:00,27.2,-1.7,30.06,ESE,112,1.0,7.0,28,0.00,,,-99.99,WeatherLink 5.5,2013-02-02 19:40:00,
2013-02-02 14:45:00,27.2,-1.7,30.06,ESE,112,1.0,7.0,28,0.00,,,-99.99,WeatherLink 5.5,2013-02-02 19:45:00,
2013-02-02 14:50:00,27.3,-1.6,30.05,ESE,112,2.0,8.0,28,0.00,,,-99.99,WeatherLink 5.5,2013-02-02 19:50:00,
2013-02-02 14:55:00,27.5,-1.4,30.05,South,180,2.0,11.0,28,0.00,,,-99.99,WeatherLink 5.5,2013-02-02 19:55:00,
2013-02-02 15:00:00,27.5,-1.4,30.05,South,180,2.0,11.0,28,0.00,,,-99.99,WeatherLink 5.5,2013-02-02 20:00:00,
2013-02-02 15:05:00,27.5,-0.7,30.05,ESE,112,0.0,2.0,29,0.00,,,-99.99,WeatherLink 5.5,2013-02-02 20:05:00,
2013-02-02 15:10:00,27.5,0.1,30.05,ESE,112,1.0,6.0,30,0.00,,,-99.99,WeatherLink 5.5,2013-02-02 20:10:00,
2013-02-02 15:15:00,27.5,0.1,30.05,ESE,112,1.0,6.0,30,0.00,,,-99.99,WeatherLink 5.5,2013-02-02 20:15:00,
2013-02-02 15:20:00,27.5,-1.4,30.04,ESE,112,1.0,8.0,28,0.00,,,-99.99,WeatherLink 5.5,2013-02-02 20:20:00,
2013-02-02 15:25:00,27.6,-0.6,30.04,ESE,112,0.0,1.0,29,0.00,,,-99.99,WeatherLink 5.5,2013-02-02 20:25:00,
2013-02-02 15:30:00,27.6,-0.6,30.04,ESE,112,0.0,1.0,29,0.00,,,-99.99,WeatherLink 5.5,2013-02-02 20:30:00,
2013-02-02 15:35:00,27.6,-1.3,30.04,ESE,112,4.0,13.0,28,0.00,,,-99.99,WeatherLink 5.5,2013-02-02 20:35:00,
2013-02-02 15:40:00,27.6,-1.3,30.04,SE,135,2.0,6.0,28,0.00,,,-99.99,WeatherLink 5.5,2013-02-02 20:40:00,
2013-02-02 15:45:00,27.6,-1.3,30.04,SE,135,2.0,6.0,28,0.00,,,-99.99,WeatherLink 5.5,2013-02-02 20:45:00,
2013-02-02 15:50:00,27.6,-1.3,30.03,SE,135,2.0,7.0,28,0.00,,,-99.99,WeatherLink 5.5,2013-02-02 20:50:00,
2013-02-02 15:55:00,27.8,-0.4,30.03,East,90,0.0,2.0,29,0.00,,,-99.99,WeatherLink 5.5,2013-02-02 20:55:00,
2013-02-02 16:00:00,27.8,-0.4,30.03,East,90,0.0,2.0,29,0.00,,,-99.99,WeatherLink 5.5,2013-02-02 21:00:00,
2013-02-02 16:05:00,27.8,-1.1,30.03,ESE,112,1.0,11.0,28,0.00,,,-99.99,WeatherLink 5.5,2013-02-02 21:05:00,
2013-02-02 16:10:00,27.8,-1.1,30.03,East,90,2.0,9.0,28,0.00,,,-99.99,WeatherLink 5.5,2013-02-02 21:10:00,
2013-02-02 16:15:00,27.8,-1.1,30.03,East,90,2.0,9.0,28,0.00,,,-99.99,WeatherLink 5.5,2013-02-02 21:15:00,
2013-02-02 16:20:00,27.8,-1.1,30.03,SE,135,1.0,8.0,28,0.00,,,-99.99,WeatherLink 5.5,2013-02-02 21:20:00,
2013-02-02 16:25:00,27.8,-1.1,30.03,ESE,112,0.0,6.0,28,0.00,,,-99.99,WeatherLink 5.5,2013-02-02 21:25:00,
2013-02-02 16:30:00,27.8,-1.1,30.03,ESE,112,0.0,6.0,28,0.00,,,-99.99,WeatherLink 5.5,2013-02-02 21:30:00,
2013-02-02 16:35:00,27.8,-1.1,30.02,SE,135,1.0,7.0,28,0.00,,,-99.99,WeatherLink 5.5,2013-02-02 21:35:00,
2013-02-02 16:40:00,27.8,-1.1,30.02,ESE,112,0.0,1.0,28,0.00,,,-99.99,WeatherLink 5.5,2013-02-02 21:40:00,
2013-02-02 16:45:00,27.8,-1.1,30.02,ESE,112,0.0,1.0,28,0.00,,,-99.99,WeatherLink 5.5,2013-02-02 21:45:00,
2013-02-02 16:50:00,27.6,-2.1,30.02,SE,135,0.0,1.0,27,0.00,,,-99.99,WeatherLink 5.5,2013-02-02 21:50:00,
2013-02-02 16:55:00,27.5,-1.4,30.02,SW,225,1.0,6.0,28,0.00,,,-99.99,WeatherLink 5.5,2013-02-02 21:55:00,
2013-02-02 17:00:00,27.5,-1.4,30.02,SW,225,1.0,6.0,28,0.00,,,-99.99,WeatherLink 5.5,2013-02-02 22:00:00,
2013-02-02 17:05:00,27.5,-1.4,30.02,North,-999,0.0,0.0,28,0.00,,,-99.99,WeatherLink 5.5,2013-02-02 22:05:00,
2013-02-02 17:10:00,27.3,-1.6,30.02,North,-999,0.0,0.0,28,0.00,,,-99.99,WeatherLink 5.5,2013-02-02 22:10:00,
2013-02-02 17:15:00,27.3,-1.6,30.02,North,-999,0.0,0.0,28,0.00,,,-99.99,WeatherLink 5.5,2013-02-02 22:15:00,
2013-02-02 17:20:00,27.2,-0.9,30.02,SE,135,0.0,1.0,29,0.00,,,-99.99,WeatherLink 5.5,2013-02-02 22:20:00,
2013-02-02 17:25:00,27.2,-1.7,30.02,SE,135,1.0,6.0,28,0.00,,,-99.99,WeatherLink 5.5,2013-02-02 22:25:00,
2013-02-02 17:30:00,27.2,-1.7,30.02,SE,135,1.0,6.0,28,0.00,,,-99.99,WeatherLink 5.5,2013-02-02 22:30:00,
2013-02-02 17:35:00,27.2,-1.7,30.02,SSE,157,1.0,6.0,28,0.00,,,-99.99,WeatherLink 5.5,2013-02-02 22:35:00,
2013-02-02 17:40:00,27.2,-1.7,30.02,ESE,112,0.0,4.0,28,0.00,,,-99.99,WeatherLink 5.5,2013-02-02 22:40:00,
2013-02-02 17:45:00,27.2,-1.7,30.02,ESE,112,0.0,4.0,28,0.00,,,-99.99,WeatherLink 5.5,2013-02-02 22:45:00,
2013-02-02 17:50:00,27.2,-1.7,30.02,SE,135,1.0,6.0,28,0.00,,,-99.99,WeatherLink 5.5,2013-02-02 22:50:00,
2013-02-02 17:55:00,27.3,-1.6,30.02,SE,135,0.0,4.0,28,0.00,,,-99.99,WeatherLink 5.5,2013-02-02 22:55:00,
2013-02-02 18:00:00,27.3,-1.6,30.02,SE,135,0.0,4.0,28,0.00,,,-99.99,WeatherLink 5.5,2013-02-02 23:00:00,
2013-02-02 18:05:00,27.2,-1.7,30.02,North,-999,0.0,0.0,28,0.00,,,-99.99,WeatherLink 5.5,2013-02-02 23:05:00,
2013-02-02 18:10:00,27.2,-2.4,30.02,ESE,112,1.0,4.0,27,0.00,,,-99.99,WeatherLink 5.5,2013-02-02 23:10:00,
2013-02-02 18:15:00,27.2,-2.4,30.02,ESE,112,1.0,4.0,27,0.00,,,-99.99,WeatherLink 5.5,2013-02-02 23:15:00,
2013-02-02 18:20:00,27.2,-2.4,30.02,SE,135,0.0,4.0,27,0.00,,,-99.99,WeatherLink 5.5,2013-02-02 23:20:00,
2013-02-02 18:25:00,27.2,-2.4,30.02,North,-999,0.0,0.0,27,0.00,,,-99.99,WeatherLink 5.5,2013-02-02 23:25:00,
2013-02-02 18:30:00,27.2,-2.4,30.02,North,-999,0.0,0.0,27,0.00,,,-99.99,WeatherLink 5.5,2013-02-02 23:30:00,
2013-02-02 18:35:00,27.0,-2.6,30.02,East,90,0.0,1.0,27,0.00,,,-99.99,WeatherLink 5.5,2013-02-02 23:35:00,
2013-02-02 18:40:00,26.9,-3.5,30.02,SE,135,1.0,8.0,26,0.00,,,-99.99,WeatherLink 5.5,2013-02-02 23:40:00,
2013-02-02 18:45:00,26.9,-3.5,30.02,SE,135,1.0,8.0,26,0.00,,,-99.99,WeatherLink 5.5,2013-02-02 23:45:00,
2013-02-02 18:50:00,26.9,-2.7,30.02,SSE,157,0.0,4.0,27,0.00,,,-99.99,WeatherLink 5.5,2013-02-02 23:50:00,
2013-02-02 18:55:00,26.7,-2.9,30.02,SSE,157,0.0,2.0,27,0.00,,,-99.99,WeatherLink 5.5,2013-02-02 23:55:00,
2013-02-02 19:00:00,26.7,-2.9,30.02,SSE,157,0.0,2.0,27,0.00,,,-99.99,WeatherLink 5.5,2013-02-03 00:00:00,
2013-02-02 19:05:00,26.7,-2.9,30.02,SE,135,0.0,1.0,27,0.00,,,-99.99,WeatherLink 5.5,2013-02-03 00:05:00,
2013-02-02 19:10:00,26.6,-3.0,30.02,SE,135,0.0,1.0,27,0.00,,,-99.99,WeatherLink 5.5,2013-02-03 00:10:00,
2013-02-02 19:15:00,26.6,-3.0,30.02,SE,135,0.0,1.0,27,0.00,,,-99.99,WeatherLink 5.5,2013-02-03 00:15:00,
2013-02-02 19:20:00,26.4,-3.1,30.02,SE,135,0.0,1.0,27,0.00,,,-99.99,WeatherLink 5.5,2013-02-03 00:20:00,
2013-02-02 19:25:00,26.4,-2.4,30.02,North,-999,0.0,0.0,28,0.00,,,-99.99,WeatherLink 5.5,2013-02-03 00:25:00,
2013-02-02 19:30:00,26.4,-2.4,30.02,North,-999,0.0,0.0,28,0.00,,,-99.99,WeatherLink 5.5,2013-02-03 00:30:00,
2013-02-02 19:35:00,26.3,-1.0,30.02,North,-999,0.0,0.0,30,0.00,,,-99.99,WeatherLink 5.5,2013-02-03 00:35:00,
2013-02-02 19:40:00,26.1,-1.9,30.02,North,-999,0.0,0.0,29,0.00,,,-99.99,WeatherLink 5.5,2013-02-03 00:40:00,
2013-02-02 19:45:00,26.1,-1.9,30.02,North,-999,0.0,0.0,29,0.00,,,-99.99,WeatherLink 5.5,2013-02-03 00:45:00,
2013-02-02 19:50:00,26.1,-1.2,30.02,North,-999,0.0,0.0,30,0.00,,,-99.99,WeatherLink 5.5,2013-02-03 00:50:00,
2013-02-02 19:55:00,26.1,-1.2,30.02,SE,135,0.0,1.0,30,0.00,,,-99.99,WeatherLink 5.5,2013-02-03 00:55:00,
2013-02-02 20:00:00,26.1,-1.2,30.02,SE,135,0.0,1.0,30,0.00,,,-99.99,WeatherLink 5.5,2013-02-03 01:00:00,
2013-02-02 20:05:00,26.0,-0.6,30.02,ESE,112,0.0,1.0,31,0.00,,,-99.99,WeatherLink 5.5,2013-02-03 01:05:00,
2013-02-02 20:10:00,26.0,-0.6,30.02,SE,135,0.0,2.0,31,0.00,,,-99.99,WeatherLink 5.5,2013-02-03 01:10:00,
2013-02-02 20:15:00,26.0,-0.6,30.02,SE,135,0.0,2.0,31,0.00,,,-99.99,WeatherLink 5.5,2013-02-03 01:15:00,
2013-02-02 20:20:00,26.0,0.8,30.01,SE,135,0.0,2.0,33,0.00,,,-99.99,WeatherLink 5.5,2013-02-03 01:20:00,
2013-02-02 20:25:00,26.0,1.4,30.01,SE,135,0.0,1.0,34,0.00,,,-99.99,WeatherLink 5.5,2013-02-03 01:25:00,
2013-02-02 20:30:00,26.0,1.4,30.01,SE,135,0.0,1.0,34,0.00,,,-99.99,WeatherLink 5.5,2013-02-03 01:30:00,
2013-02-02 20:35:00,26.0,0.8,30.01,SSE,157,0.0,4.0,33,0.00,,,-99.99,WeatherLink 5.5,2013-02-03 01:35:00,
2013-02-02 20:40:00,26.0,1.4,30.01,SE,135,0.0,4.0,34,0.00,,,-99.99,WeatherLink 5.5,2013-02-03 01:40:00,
2013-02-02 20:45:00,26.0,1.4,30.01,SE,135,0.0,4.0,34,0.00,,,-99.99,WeatherLink 5.5,2013-02-03 01:45:00,
2013-02-02 20:50:00,26.0,1.4,30.01,SE,135,0.0,4.0,34,0.00,,,-99.99,WeatherLink 5.5,2013-02-03 01:50:00,
2013-02-02 20:55:00,25.8,1.2,30.01,South,180,0.0,6.0,34,0.00,,,-99.99,WeatherLink 5.5,2013-02-03 01:55:00,
2013-02-02 21:00:00,25.8,1.2,30.01,South,180,0.0,6.0,34,0.00,,,-99.99,WeatherLink 5.5,2013-02-03 02:00:00,
2013-02-02 21:05:00,25.8,1.2,30.01,SSE,157,1.0,6.0,34,0.00,,,-99.99,WeatherLink 5.5,2013-02-03 02:05:00,
2013-02-02 21:10:00,25.8,1.9,30.01,ESE,112,0.0,2.0,35,0.00,,,-99.99,WeatherLink 5.5,2013-02-03 02:10:00,
2013-02-02 21:15:00,25.8,1.9,30.01,ESE,112,0.0,2.0,35,0.00,,,-99.99,WeatherLink 5.5,2013-02-03 02:15:00,
2013-02-02 21:20:00,26.0,2.0,30.01,South,180,0.0,4.0,35,0.00,,,-99.99,WeatherLink 5.5,2013-02-03 02:20:00,
2013-02-02 21:25:00,26.0,2.0,30.01,SE,135,0.0,6.0,35,0.00,,,-99.99,WeatherLink 5.5,2013-02-03 02:25:00,
2013-02-02 21:30:00,26.0,2.0,30.01,SE,135,0.0,6.0,35,0.00,,,-99.99,WeatherLink 5.5,2013-02-03 02:30:00,
2013-02-02 21:35:00,25.8,1.9,30.01,North,-999,0.0,0.0,35,0.00,,,-99.99,WeatherLink 5.5,2013-02-03 02:35:00,
2013-02-02 21:40:00,25.8,2.5,30.01,ESE,112,0.0,2.0,36,0.00,,,-99.99,WeatherLink 5.5,2013-02-03 02:40:00,
2013-02-02 21:45:00,25.8,2.5,30.01,ESE,112,0.0,2.0,36,0.00,,,-99.99,WeatherLink 5.5,2013-02-03 02:45:00,
2013-02-02 21:50:00,25.7,1.8,30.01,SE,135,0.0,1.0,35,0.00,,,-99.99,WeatherLink 5.5,2013-02-03 02:50:00,
2013-02-02 21:55:00,25.7,3.0,30.01,SE,135,0.0,2.0,37,0.00,,,-99.99,WeatherLink 5.5,2013-02-03 02:55:00,
2013-02-02 22:00:00,25.7,3.0,30.01,SE,135,0.0,2.0,37,0.00,,,-99.99,WeatherLink 5.5,2013-02-03 03:00:00,
2013-02-02 22:05:00,25.7,2.4,30.01,SE,135,0.0,1.0,36,0.00,,,-99.99,WeatherLink 5.5,2013-02-03 03:05:00,
2013-02-02 22:10:00,25.7,2.4,30.01,SE,135,0.0,2.0,36,0.00,,,-99.99,WeatherLink 5.5,2013-02-03 03:10:00,
2013-02-02 22:15:00,25.7,2.4,30.01,SE,135,0.0,2.0,36,0.00,,,-99.99,WeatherLink 5.5,2013-02-03 03:15:00,
2013-02-02 22:20:00,25.5,2.8,30.00,SE,135,0.0,2.0,37,0.00,,,-99.99,WeatherLink 5.5,2013-02-03 03:20:00,
2013-02-02 22:25:00,25.5,2.8,30.00,North,-999,0.0,0.0,37,0.00,,,-99.99,WeatherLink 5.5,2013-02-03 03:25:00,
2013-02-02 22:30:00,25.5,2.8,30.00,North,-999,0.0,0.0,37,0.00,,,-99.99,WeatherLink 5.5,2013-02-03 03:30:00,
2013-02-02 22:35:00,25.5,2.8,30.00,North,-999,0.0,0.0,37,0.00,,,-99.99,WeatherLink 5.5,2013-02-03 03:35:00,
2013-02-02 22:40:00,25.4,2.7,30.00,North,-999,0.0,0.0,37,0.00,,,-99.99,WeatherLink 5.5,2013-02-03 03:40:00,
2013-02-02 22:45:00,25.4,2.7,30.00,North,-999,0.0,0.0,37,0.00,,,-99.99,WeatherLink 5.5,2013-02-03 03:45:00,
2013-02-02 22:50:00,25.4,2.7,30.00,SE,135,0.0,1.0,37,0.00,,,-99.99,WeatherLink 5.5,2013-02-03 03:50:00,
2013-02-02 22:55:00,25.4,2.7,30.00,SE,135,0.0,2.0,37,0.00,,,-99.99,WeatherLink 5.5,2013-02-03 03:55:00,
2013-02-02 23:00:00,25.4,2.7,30.00,SE,135,0.0,2.0,37,0.00,,,-99.99,WeatherLink 5.5,2013-02-03 04:00:00,
2013-02-02 23:05:00,25.4,3.3,30.00,WNW,292,1.0,7.0,38,0.00,,,-99.99,WeatherLink 5.5,2013-02-03 04:05:00,
2013-02-02 23:10:00,25.4,3.8,30.00,SE,135,1.0,6.0,39,0.00,,,-99.99,WeatherLink 5.5,2013-02-03 04:10:00,
2013-02-02 23:15:00,25.4,3.8,30.00,SE,135,1.0,6.0,39,0.00,,,-99.99,WeatherLink 5.5,2013-02-03 04:15:00,
2013-02-02 23:20:00,25.4,4.4,30.00,WSW,247,0.0,9.0,40,0.00,,,-99.99,WeatherLink 5.5,2013-02-03 04:20:00,
2013-02-02 23:25:00,25.4,4.4,30.00,SSE,157,0.0,4.0,40,0.00,,,-99.99,WeatherLink 5.5,2013-02-03 04:25:00,
2013-02-02 23:30:00,25.4,4.4,30.00,SSE,157,0.0,4.0,40,0.00,,,-99.99,WeatherLink 5.5,2013-02-03 04:30:00,
2013-02-02 23:35:00,25.3,5.9,30.01,SW,225,2.0,11.0,43,0.00,,,-99.99,WeatherLink 5.5,2013-02-03 04:35:00,
2013-02-02 23:40:00,25.1,6.7,30.01,West,270,2.0,8.0,45,0.00,,,-99.99,WeatherLink 5.5,2013-02-03 04:40:00,
2013-02-02 23:45:00,25.1,6.7,30.01,West,270,2.0,8.0,45,0.00,,,-99.99,WeatherLink 5.5,2013-02-03 04:45:00,
2013-02-02 23:50:00,24.8,7.4,30.01,SW,225,2.0,7.0,47,0.00,,,-99.99,WeatherLink 5.5,2013-02-03 04:50:00,
2013-02-02 23:55:00,24.8,7.9,30.01,WSW,247,2.0,8.0,48,0.00,,,-99.99,WeatherLink 5.5,2013-02-03 04:55:00,